Flag for Cyprus Weather past 2 weeks in Limassol, Cyprus

Now
82 °F

Passing clouds.


Feels Like: 83 °F
Forecast: 64 / 88 °F
Wind: 14 mph from Southwest

Location: Akrotiri

Current Time: Sep 20, 2014 at 1:59:07 PM

Latest Report: Sep 20, 2014 at 12:50 PM


Visibility: N/A

Pressure: 29.92 "Hg

Humidity: 48%

Dew point: 61 °F

Location of LimassolLocation

Historic Weather in Limassol — Graph

°F

Limassol temperature yesterday

Maximum temperature yesterday: 82 °F (at 12:50 PM)
Minimum temperature yesterday: 68 °F (at 6:50 AM)
Average temperature yesterday: 77 °F

Past Weeks' High & Low Weather Summary

 TemperatureHumidityPressure
High86 °F (Sep 5, 12:50 PM)83% (Sep 6, 4:50 AM)29.95 "Hg (Sep 6, 4:50 AM)
Low68 °F (Sep 19, 6:50 AM)48% (Sep 15, 9:50 AM)29.68 "Hg (Sep 5, 3:50 PM)
Average79 °F68%29.83 "Hg
* Reported Sep 5 12:50 PM — Sep 20 12:50 PM, Limassol, Weather by CustomWeather, © 2014

Note: Actual official high and low records may vary slightly from our data, if they occured in-between our weather recording intervals... More about our weather records

Advertising

Limassol weather history for previous 24 hours

 ConditionsComfort  
Time TempWeatherWind HumidityBarometerVisibility
12:50 PM
Sep 20
82 °FPassing clouds.14 mph48%29.92 "HgN/A
11:50 AM82 °FPassing clouds.12 mph55%29.92 "HgN/A
10:50 AM82 °FPassing clouds.12 mph58%29.92 "HgN/A
9:50 AM81 °FPassing clouds.7 mph58%29.92 "HgN/A
8:50 AM79 °FSunny.6 mph61%29.92 "Hg10 mi
7:50 AM73 °FSunny.3 mph53%29.92 "Hg10 mi
6:50 AM70 °FPassing clouds.3 mph60%29.92 "HgN/A
5:50 AM70 °FPassing clouds.2 mph69%29.89 "HgN/A
4:50 AM70 °FClear.3 mph73%29.89 "Hg10 mi
3:50 AM70 °FClear.2 mph73%29.89 "Hg10 mi
2:50 AM72 °FClear.2 mph78%29.89 "Hg10 mi
1:50 AM73 °FClear.3 mph83%29.92 "Hg10 mi
12:50 AM75 °FClear.5 mph83%29.92 "Hg10 mi
11:50 PM
Sep 19
75 °FClear.3 mph83%29.92 "Hg10 mi
10:50 PM75 °FClear.3 mph83%29.92 "Hg10 mi
9:50 PM77 °FPassing clouds.6 mph79%29.92 "HgN/A
8:50 PM77 °FPassing clouds.7 mph79%29.92 "HgN/A
7:55 PM79 °FPassing clouds.10 mph70%29.89 "HgN/A
6:50 PM79 °FPassing clouds.14 mph70%29.89 "HgN/A
5:50 PM81 °FPassing clouds.15 mph66%29.89 "HgN/A
4:50 PM81 °FPassing clouds.16 mph66%29.86 "HgN/A
3:50 PM81 °FPassing clouds.16 mph58%29.89 "HgN/A
2:50 PM82 °FPassing clouds.15 mph55%29.89 "HgN/A
1:50 PM82 °FSunny.14 mph55%29.89 "HgN/A
Weather by CustomWeather, © 2014

See weather overviewHow to use our weather pages